Location: Mountain View
(37.3861°N, 122.0839°W)
Time: 01:39:42
(UTC-08:00)

N. Korean satellite - Visible Passes

Search period start: 19 February 2019 00:00
Search period end: 01 March 2019 00:00
Orbit: 457 x 510 km, 97.2° (Epoch: 18 February)

Date Brightness Start Highest point End Pass type
(mag) Time Alt. Az. Time Alt. Az. Time Alt. Az.
19 Feb 10.2 18:37:12 10° SW 18:39:14 14° W 18:41:17 10° WNW visible
20 Feb 7.5 06:04:10 10° NNE 06:07:31 50° E 06:10:51 10° S visible
21 Feb 9.3 05:39:57 10° NE 05:42:43 22° E 05:45:27 10° SSE visible
22 Feb 10.3 05:17:07 10° E 05:17:48 10° E 05:18:28 10° ESE visible
23 Feb 10.1 18:31:18 10° SW 18:33:40 16° W 18:36:02 10° NW visible
24 Feb 8.0 05:58:40 10° NNE 06:01:56 41° E 06:05:11 10° S visible
25 Feb 9.6 05:34:35 10° NE 05:37:06 19° E 05:39:36 10° SE visible
27 Feb 10.0 18:25:27 10° SW 18:28:03 19° W 18:30:40 10° NW visible
28 Feb 8.4 05:53:08 10° NNE 05:56:18 34° E 05:59:28 10° SSE visible
